DW5656 Weather Reports


time (UTC)temp
C
wind
direction
speed
KPH
gust
KPH
rain 1hr
cm
rain 24hr
cm
rain mn
cm
humidity
%
barometer
mb
20260831185321 33 267 9.7 17.7 0.00 0.00 0.00 29 1014.1
20260831184421 34 262 8.0 17.7 0.00 0.00 0.00 29 1013.9
20260831183521 34 268 9.7 17.7 0.00 0.00 0.00 29 1013.9
20260831182621 35 272 9.7 19.3 0.00 0.00 0.00 30 1013.8
20260831181721 35 270 9.7 22.5 0.00 0.00 0.00 30 1013.9
20260831180842 35 272 9.7 22.5 0.00 0.00 0.00 30 1013.9
20260831175921 35 264 9.7 22.5 0.00 0.00 0.00 30 1013.9
20260831175021 35 266 11.3 20.9 0.00 0.00 0.00 30 1013.9
20260831174122 35 270 8.0 22.5 0.00 0.00 0.00 31 1013.9
20260831173221 35 237 9.7 17.7 0.00 0.00 0.00 35 1013.8
20260831172321 35 226 8.0 19.3 0.00 0.00 0.00 35 1013.8
20260831171421 35 219 8.0 17.7 0.00 0.00 0.00 34 1013.9
20260831170521 36 209 8.0 14.5 0.00 0.00 0.00 33 1013.9
20260831165621 36 208 6.4 17.7 0.00 0.00 0.00 31 1013.9
20260831164742 36 232 6.4 14.5 0.00 0.00 0.00 29 1013.8
20260831163821 36 224 8.0 12.9 0.00 0.00 0.00 30 1013.8
20260831162921 36 238 6.4 17.7 0.00 0.00 0.00 31 1013.9
20260831162021 36 236 6.4 16.1 0.00 0.00 0.00 32 1014.0
20260831161121 36 220 8.0 14.5 0.00 0.00 0.00 33 1014.1
20260831160221 36 242 8.0 16.1 0.00 0.00 0.00 33 1014.1
20260831155342 36 261 8.0 16.1 0.00 0.00 0.00 32 1014.1
20260831154442 36 249 6.4 16.1 0.00 0.00 0.00 32 1014.2
20260831153542 36 249 6.4 17.7 0.00 0.00 0.00 31 1014.2
20260831152621 36 203 4.8 12.9 0.00 0.00 0.00 29 1014.3
20260831151742 36 255 8.0 17.7 0.00 0.00 0.00 30 1014.3
20260831150821 36 231 6.4 16.1 0.00 0.00 0.00 31 1014.3
20260831145921 36 211 4.8 12.9 0.00 0.00 0.00 30 1014.3
20260831145042 36 213 6.4 12.9 0.00 0.00 0.00 29 1014.4
20260831144121 36 205 4.8 16.1 0.00 0.00 0.00 29 1014.5
20260831143221 36 257 4.8 12.9 0.00 0.00 0.00 30 1014.7
20260831142321 36 253 4.8 12.9 0.00 0.00 0.00 29 1014.8
20260831141420 36 224 4.8 14.5 0.00 0.00 0.00 29 1014.9
20260831140520 36 213 3.2 11.3 0.00 0.00 0.00 30 1015.0
20260831135621 35 264 4.8 6.4 0.00 0.00 0.00 31 1015.0
20260831134720 35 173 4.8 9.7 0.00 0.00 0.00 32 1015.1
20260831133820 35 253 4.8 9.7 0.00 0.00 0.00 31 1015.3
20260831132920 35 334 4.8 11.3 0.00 0.00 0.00 31 1015.3
20260831132020 35 293 4.8 12.9 0.00 0.00 0.00 32 1015.5
20260831131120 35 279 3.2 11.3 0.00 0.00 0.00 34 1015.5
20260831130220 34 248 4.8 11.3 0.00 0.00 0.00 34 1015.5
20260831125320 34 289 3.2 11.3 0.00 0.00 0.00 35 1015.6
20260831124420 34 267 3.2 11.3 0.00 0.00 0.00 35 1015.6
20260831123520 33 298 4.8 11.3 0.00 0.00 0.00 36 1015.8
20260831122641 33 273 4.8 14.5 0.00 0.00 0.00 36 1015.9
20260831121720 33 291 4.8 11.3 0.00 0.00 0.00 37 1016.0
20260831120820 33 254 4.8 11.3 0.00 0.00 0.00 37 1016.1
20260831115920 33 248 4.8 11.3 0.00 0.00 0.00 37 1016.3
20260831115020 33 255 3.2 11.3 0.00 0.00 0.00 37 1016.4
20260831114141 33 342 3.2 6.4 0.00 0.00 0.00 38 1016.5
20260831113220 32 26 3.2 8.0 0.00 0.00 0.00 38 1016.5
20260831112320 32 84 4.8 12.9 0.00 0.00 0.00 38 1016.6
20260831111420 32 83 3.2 12.9 0.00 0.00 0.00 38 1016.6
20260831110520 32 167 3.2 9.7 0.00 0.00 0.00 39 1016.7
20260831105641 31 19 3.2 8.0 0.00 0.00 0.00 40 1016.7
20260831104720 31 86 3.2 9.7 0.00 0.00 0.00 40 1016.7
20260831103841 31 84 3.2 9.7 0.00 0.00 0.00 40 1016.9
20260831102920 31 90 3.2 11.3 0.00 0.00 0.00 41 1016.8
20260831102020 31 108 3.2 11.3 0.00 0.00 0.00 41 1017.0
20260831101120 31 104 3.2 11.3 0.00 0.00 0.00 41 1017.1
20260831100220 31 110 3.2 11.3 0.00 0.00 0.00 41 1017.1
20260831095320 30 99 3.2 11.3 0.00 0.00 0.00 42 1016.9
20260831094420 30 102 3.2 9.7 0.00 0.00 0.00 44 1016.8
20260831093520 30 84 3.2 4.8 0.00 0.00 0.00 44 1016.8
20260831092620 29 100 1.6 9.7 0.00 0.00 0.00 45 1016.9
20260831091720 28 95 1.6 6.4 0.00 0.00 0.00 45 1016.9
20260831090841 28 91 3.2 6.4 0.00 0.00 0.00 47 1017.0
20260831085942 27 61 4.8 6.4 0.00 0.00 0.00 48 1016.9
20260831085020 27 104 4.8 9.7 0.00 0.00 0.00 49 1016.9
20260831084120 27 104 4.8 9.7 0.00 0.00 0.00 49 1017.0
20260831083220 27 61 1.6 6.4 0.00 0.00 0.00 49 1017.1
20260831082319 27 42 1.6 4.8 0.00 0.00 0.00 51 1017.0
20260831081420 27 44 1.6 4.8 0.00 0.00 0.00 53 1017.1
20260831080519 26 67 3.2 6.4 0.00 0.00 0.00 54 1017.0
20260831075619 26 65 3.2 6.4 0.00 0.00 0.00 55 1017.1
20260831074719 25 57 3.2 8.0 0.00 0.00 0.00 55 1017.0
20260831073819 25 46 3.2 6.4 0.00 0.00 0.00 56 1016.9
20260831072919 25 26 1.6 6.4 0.00 0.00 0.00 57 1016.8
20260831072019 25 23 1.6 4.8 0.00 0.00 0.00 58 1016.8
20260831071119 24 28 3.2 6.4 0.00 0.00 0.00 60 1016.8
20260831070219 24 33 3.2 6.4 0.00 0.00 0.00 60 1016.8
20260831065319 23 33 4.8 8.0 0.00 0.00 0.00 62 1016.7
20260831064440 23 36 4.8 8.0 0.00 0.00 0.00 63 1016.5
20260831063519 23 35 4.8 8.0 0.00 0.00 0.00 64 1016.4
20260831062619 23 52 3.2 8.0 0.00 0.00 0.00 65 1016.3
20260831061740 23 23 3.2 6.4 0.00 0.00 0.00 66 1016.2
20260831060840 23 13 3.2 6.4 0.00 0.00 0.00 66 1016.2
20260831055919 23 2 3.2 6.4 0.00 0.00 0.00 67 1016.2
20260831055019 23 355 3.2 6.4 0.00 0.00 0.00 67 1016.1
20260831054119 23 359 4.8 6.4 0.00 0.00 0.00 67 1016.1
20260831053219 23 4 4.8 6.4 0.00 0.00 0.00 67 1015.9
20260831052319 23 10 4.8 6.4 0.00 0.00 0.00 67 1015.8
20260831051419 23 341 3.2 8.0 0.00 0.00 0.00 68 1015.9
20260831050519 23 351 3.2 6.4 0.00 0.00 0.00 68 1015.9
20260831045619 24 351 3.2 4.8 0.00 0.00 0.00 68 1016.0
20260831044719 24 351 3.2 6.4 0.00 0.00 0.00 67 1016.0
20260831043819 24 346 3.2 6.4 0.00 0.00 0.00 67 1015.9
20260831042919 24 313 3.2 6.4 0.00 0.00 0.00 68 1016.0
20260831042019 24 306 3.2 4.8 0.00 0.00 0.00 69 1016.0
20260831041119 24 306 3.2 4.8 0.00 0.00 0.00 69 1016.1
20260831040219 23 299 3.2 6.4 0.00 0.00 0.00 70 1016.1
20260831035319 23 242 1.6 4.8 0.00 0.00 0.00 71 1016.1
20260831034419 23 235 1.6 3.2 0.00 0.00 0.00 72 1016.1
20260831033519 23 232 1.6 3.2 0.00 0.00 0.00 73 1016.1
20260831032619 23 232 0.0 1.6 0.00 0.00 0.00 74 1016.2
20260831031719 23 232 0.0 1.6 0.00 0.00 0.00 74 1016.2
20260831030819 22 232 1.6 3.2 0.00 0.00 0.00 73 1016.2
20260831025919 23 232 1.6 3.2 0.00 0.00 0.00 73 1016.3
20260831025019 23 232 1.6 4.8 0.00 0.00 0.00 73 1016.4
20260831024140 23 231 1.6 4.8 0.00 0.00 0.00 73 1016.4
20260831023240 23 229 1.6 4.8 0.00 0.00 0.00 72 1016.4
20260831022319 23 229 1.6 6.4 0.00 0.00 0.00 72 1016.4
20260831021440 23 229 1.6 4.8 0.00 0.00 0.00 72 1016.3
20260831020518 23 229 1.6 4.8 0.00 0.00 0.00 71 1016.3
20260831015619 23 229 1.6 4.8 0.00 0.00 0.00 71 1016.3
20260831014718 23 229 1.6 3.2 0.00 0.00 0.00 71 1016.3
20260831013818 23 229 1.6 3.2 0.00 0.00 0.00 70 1016.3
20260831012918 23 229 3.2 6.4 0.00 0.00 0.00 70 1016.3
20260831012018 23 232 1.6 6.4 0.00 0.00 0.00 69 1016.3
20260831011118 23 232 1.6 6.4 0.00 0.00 0.00 69 1016.3
20260831010218 23 232 3.2 4.8 0.00 0.00 0.00 68 1016.3
20260831005318 23 227 3.2 8.0 0.00 0.00 0.00 67 1016.2
20260831004418 24 213 1.6 6.4 0.00 0.00 0.00 66 1016.3
20260831003518 24 213 1.6 4.8 0.00 0.00 0.00 64 1016.2
20260831002639 24 202 1.6 4.8 0.00 0.00 0.00 64 1016.3
20260831001718 24 191 3.2 6.4 0.00 0.00 0.00 63 1016.2
20260831000839 25 197 3.2 6.4 0.00 0.00 0.00 62 1016.1
20260830235918 25 181 3.2 6.4 0.00 0.00 0.00 61 1016.1
20260830235018 25 178 3.2 6.4 0.00 0.00 0.00 59 1016.1
20260830234139 25 209 3.2 6.4 0.00 0.00 0.00 59 1016.1
20260830233218 25 209 1.6 4.8 0.00 0.00 0.00 58 1016.1
20260830232318 25 209 0.0 3.2 0.00 0.00 0.00 58 1015.9
20260830231418 25 209 1.6 3.2 0.00 0.00 0.00 58 1015.8
20260830230518 25 209 1.6 3.2 0.00 0.00 0.00 57 1015.8
20260830225618 26 209 1.6 3.2 0.00 0.00 0.00 57 1015.8
20260830224718 26 209 3.2 4.8 0.00 0.00 0.00 57 1015.7
20260830223818 26 209 3.2 4.8 0.00 0.00 0.00 56 1015.7
20260830222918 26 209 3.2 4.8 0.00 0.00 0.00 56 1015.6
20260830222018 26 209 3.2 6.4 0.00 0.00 0.00 55 1015.6
20260830221118 26 212 3.2 6.4 0.00 0.00 0.00 54 1015.6
20260830220218 27 215 3.2 9.7 0.00 0.00 0.00 54 1015.5
20260830215318 27 237 4.8 11.3 0.00 0.00 0.00 53 1015.5
20260830214418 27 230 4.8 11.3 0.00 0.00 0.00 51 1015.3
20260830213539 27 219 3.2 8.0 0.00 0.00 0.00 50 1015.4
20260830212618 28 224 6.4 12.9 0.00 0.00 0.00 50 1015.3
20260830211718 28 249 6.4 12.9 0.00 0.00 0.00 49 1015.3
20260830210818 28 265 6.4 17.7 0.00 0.00 0.00 49 1015.2
20260830205918 28 255 4.8 19.3 0.00 0.00 0.00 49 1015.2
20260830205018 28 222 3.2 8.0 0.00 0.00 0.00 49 1015.3
20260830204118 28 226 4.8 8.0 0.00 0.00 0.00 49 1015.3
20260830203239 28 219 6.4 11.3 0.00 0.00 0.00 49 1015.3
20260830202318 29 217 4.8 11.3 0.00 0.00 0.00 49 1015.3
20260830201417 29 225 4.8 11.3 0.00 0.00 0.00 48 1015.2
20260830200517 30 239 4.8 16.1 0.00 0.00 0.00 47 1014.9
20260830195617 30 236 6.4 12.9 0.00 0.00 0.00 46 1014.9
20260830194717 30 240 8.0 14.5 0.00 0.00 0.00 45 1014.8
20260830193817 30 238 6.4 17.7 0.00 0.00 0.00 44 1014.7
20260830192917 31 229 6.4 14.5 0.00 0.00 0.00 43 1014.6
20260830192018 31 231 4.8 14.5 0.00 0.00 0.00 41 1014.6
20260830191138 31 238 8.0 14.5 0.00 0.00 0.00 40 1014.4
20260830190217 32 230 8.0 16.1 0.00 0.00 0.00 39 1014.3